Weather History for Atlanta Fulton, GA

Change the Weather History Date:

Saturday, December 21, 2013

  Actual Average Record
Temperature  
Mean Temperature 60 °F 44 °F  
Max Temperature 71 °F 53 °F 73 °F (1998)
Min Temperature 48 °F 34 °F 15 °F (1996)
Degree Days  
Heating Degree Days 5 21  
Month to date heating degree days 343 407  
Since 1 July heating degree days 916 917  
Growing Degree Days 10 (Base 50)    
Moisture  
Dew Point 58 °F    
Average Humidity 87    
Maximum Humidity 100    
Minimum Humidity 73    
Precipitation  
Precipitation 0.01 in 0.10 in 0.77 in (1971)
Month to date precipitation 3.18 3.00  
Snow  
Snow 0.00 in - - ()
Month to date snowfall 0.0  
Since 1 July snowfall 0.0  
Snow Depth 0.00 in    
Sea Level Pressure  
Sea Level Pressure 30.00 in    
Wind  
Wind Speed 6 mph (SSE)    
Max Wind Speed 18 mph    
Max Gust Speed 26 mph    
Visibility 8 miles    
Events Rain    
T = Trace of Precipitation, MM = Missing Value Source: NWS Daily Summary

Daily Weather History Graph

Daily Weather History Graph

Search for Another Location

Airport:

Trip Planner

Search our weather history database for the weather conditions in past years. The results will help you decide how hot, cold, wet, or windy it might be!

Date:

Astronomy

Dec. 21, 2013 Rise Set
Actual Time 7:39 AM EST 5:33 PM EST
Civil Twilight 7:11 AM EST 6:01 PM EST
Nautical Twilight 6:40 AM EST 6:32 PM EST
Astronomical Twilight 6:09 AM EST 7:02 PM EST
Moon 9:38 PM EST (12/21) 10:14 AM EST (12/21)
Length of Visible Light 10h 49m
Length of Day
9h 54m
Waning Gibbous, 84% of the Moon is Illuminated
Dec 21
Waning Gibbous
Dec 25
Last Quarter
Jan 1
New
Jan 7
First Quarter
Jan 15
Full

Hourly Weather History & Observations

Time (EST) Temp. Dew Point Humidity Pressure Visibility Wind Dir Wind Speed Gust Speed Precip Events Conditions
12:53 AM 52.0 °F 48.9 °F 89% 30.10 in 10.0 mi Calm Calm - N/A   Overcast
1:53 AM 51.1 °F 48.0 °F 89% 30.08 in 10.0 mi Calm Calm - N/A   Clear
2:53 AM 48.9 °F 46.9 °F 93% 30.08 in 7.0 mi Calm Calm - N/A   Overcast
3:53 AM 48.9 °F 46.9 °F 93% 30.07 in 5.0 mi Calm Calm - N/A   Mostly Cloudy
4:50 AM 51.8 °F 48.2 °F 88% 30.06 in 7.0 mi Calm Calm - N/A   Overcast
4:53 AM 51.1 °F 48.9 °F 92% 30.06 in 7.0 mi Calm Calm - N/A   Overcast
5:14 AM 51.8 °F 50.0 °F 94% 30.06 in 7.0 mi Calm Calm - N/A   Overcast
5:48 AM 53.6 °F 51.8 °F 94% 30.05 in 8.0 mi Calm Calm - N/A   Overcast
5:53 AM 52.0 °F 51.1 °F 97% 30.04 in 7.0 mi Calm Calm - N/A   Overcast
6:53 AM 53.1 °F 53.1 °F 100% 30.04 in 5.0 mi Calm Calm - 0.00 in   Overcast
7:48 AM 57.2 °F 55.4 °F 94% 30.05 in 6.0 mi Calm Calm - N/A   Overcast
7:53 AM 55.9 °F 55.0 °F 97% 30.04 in 5.0 mi Calm Calm - N/A   Overcast
8:05 AM 57.2 °F 55.4 °F 94% 30.04 in 4.0 mi Calm Calm - N/A   Overcast
8:53 AM 59.0 °F 55.9 °F 90% 30.04 in 9.0 mi Calm Calm - N/A   Overcast
9:15 AM 60.8 °F 57.2 °F 88% 30.04 in 5.0 mi SSE 3.5 mph - 0.00 in Rain Light Rain
9:33 AM 60.8 °F 57.2 °F 88% 30.04 in 3.0 mi Variable 5.8 mph - 0.00 in Rain Light Rain
9:53 AM 60.1 °F 57.9 °F 93% 30.04 in 6.0 mi Calm Calm - 0.00 in Rain Light Rain
10:27 AM 60.8 °F 57.2 °F 88% 30.04 in 9.0 mi Variable 4.6 mph - 0.00 in   Overcast
10:43 AM 60.8 °F 59.0 °F 94% 30.04 in 10.0 mi Variable 3.5 mph - 0.00 in   Overcast
10:53 AM 62.1 °F 59.0 °F 90% 30.03 in 10.0 mi SSE 3.5 mph - 0.00 in   Overcast
11:53 AM 66.0 °F 61.0 °F 84% 29.99 in 10.0 mi SSE 6.9 mph - N/A   Overcast
12:07 PM 66.2 °F 62.6 °F 88% 29.98 in 10.0 mi South 11.5 mph 18.4 mph N/A   Overcast
12:31 PM 69.8 °F 62.6 °F 78% 29.97 in 10.0 mi SSE 9.2 mph 18.4 mph N/A   Mostly Cloudy
12:53 PM 71.1 °F 63.0 °F 75% 29.94 in 10.0 mi Variable 6.9 mph 23.0 mph N/A   Overcast
1:53 PM 70.0 °F 63.0 °F 78% 29.94 in 10.0 mi South 10.4 mph 19.6 mph N/A   Overcast
2:35 PM 69.8 °F 62.6 °F 78% 29.95 in 8.0 mi South 11.5 mph - 0.00 in Rain Light Rain
2:43 PM 69.8 °F 64.4 °F 83% 29.95 in 7.0 mi South 10.4 mph - 0.01 in Rain Light Rain
2:53 PM 69.1 °F 64.0 °F 84% 29.94 in 10.0 mi SSE 9.2 mph - 0.01 in Rain Light Rain
3:02 PM 69.8 °F 64.4 °F 83% 29.95 in 10.0 mi SSE 9.2 mph - 0.00 in   Overcast
3:53 PM 71.1 °F 64.0 °F 78% 29.93 in 10.0 mi SSE 10.4 mph - 0.00 in   Overcast
4:53 PM 71.1 °F 63.0 °F 75% 29.94 in 10.0 mi South 11.5 mph - N/A   Overcast
5:53 PM 70.0 °F 63.0 °F 78% 29.94 in 10.0 mi South 10.4 mph - N/A   Mostly Cloudy
6:53 PM 71.1 °F 63.0 °F 75% 29.94 in 10.0 mi SSE 11.5 mph 17.3 mph N/A   Overcast
7:53 PM 71.1 °F 62.1 °F 73% 29.94 in 10.0 mi SSE 10.4 mph 17.3 mph N/A   Overcast
8:53 PM 71.1 °F 63.0 °F 75% 29.94 in 10.0 mi SSE 10.4 mph - N/A   Overcast
9:53 PM 71.1 °F 64.0 °F 78% 29.92 in 10.0 mi South 12.7 mph 18.4 mph N/A   Overcast
10:53 PM 70.0 °F 64.0 °F 81% 29.93 in 10.0 mi SSE 15.0 mph 26.5 mph N/A   Overcast
11:53 PM 71.1 °F 64.0 °F 78% 29.93 in 10.0 mi South 9.2 mph 21.9 mph N/A   Overcast